| time (UTC) | temp F | wind direction | speed knots | gust knots | rain 1hr in | rain 24hr in | rain mn in | humidity % | barometer mb |
| 20260510231009 | 71 | 347 | 0.9 | 4.3 | 0.00 | 0.00 | 0.00 | 55 | 1017.0 |
| 20260510230508 | 71 | 5 | 1.7 | 4.3 | 0.00 | 0.00 | 0.00 | 54 | 1017.0 |
| 20260510230014 | 71 | 340 | 2.6 | 5.2 | 0.00 | 0.00 | 0.00 | 56 | 1017.1 |
| 20260510225507 | 71 | 9 | 1.7 | 8.7 | 0.00 | 0.00 | 0.00 | 56 | 1017.0 |
| 20260510225011 | 71 | 350 | 4.3 | 8.7 | 0.00 | 0.00 | 0.00 | 55 | 1016.8 |
| 20260510224512 | 70 | 19 | 0.9 | 5.2 | 0.00 | 0.00 | 0.00 | 56 | 1016.8 |
| 20260510224007 | 70 | 355 | 1.7 | 7.8 | 0.00 | 0.00 | 0.00 | 56 | 1016.8 |
| 20260510223507 | 70 | 292 | 2.6 | 7.8 | 0.00 | 0.00 | 0.00 | 54 | 1016.9 |
| 20260510223007 | 70 | 355 | 1.7 | 9.6 | 0.00 | 0.00 | 0.00 | 54 | 1016.9 |
| 20260510222509 | 71 | 287 | 3.5 | 9.6 | 0.00 | 0.00 | 0.00 | 53 | 1016.8 |
| 20260510222010 | 71 | 338 | 5.2 | 10.4 | 0.00 | 0.00 | 0.00 | 52 | 1016.7 |
| 20260510221506 | 72 | 344 | 7.0 | 10.4 | 0.00 | 0.00 | 0.00 | 51 | 1016.8 |
| 20260510221006 | 73 | 319 | 4.3 | 11.3 | 0.00 | 0.00 | 0.00 | 50 | 1016.7 |
| 20260510220506 | 72 | 328 | 6.1 | 13.0 | 0.00 | 0.00 | 0.00 | 50 | 1016.5 |
| 20260510220009 | 72 | 312 | 4.3 | 7.8 | 0.00 | 0.00 | 0.00 | 47 | 1016.7 |
| 20260510215505 | 72 | 296 | 2.6 | 8.7 | 0.00 | 0.00 | 0.00 | 43 | 1016.6 |
| 20260510215004 | 72 | 269 | 6.1 | 8.7 | 0.00 | 0.00 | 0.00 | 42 | 1016.6 |
| 20260510214504 | 73 | 273 | 2.6 | 9.6 | 0.00 | 0.00 | 0.00 | 44 | 1016.6 |
| 20260510214009 | 73 | 240 | 6.1 | 10.4 | 0.00 | 0.00 | 0.00 | 41 | 1016.5 |
| 20260510213506 | 74 | 249 | 6.1 | 11.3 | 0.00 | 0.00 | 0.00 | 40 | 1016.4 |
| 20260510213004 | 75 | 250 | 4.3 | 11.3 | 0.00 | 0.00 | 0.00 | 39 | 1016.4 |
| 20260510212503 | 76 | 304 | 4.3 | 9.6 | 0.00 | 0.00 | 0.00 | 39 | 1016.3 |
| 20260510212003 | 75 | 269 | 2.6 | 6.1 | 0.00 | 0.00 | 0.00 | 39 | 1016.4 |
| 20260510211506 | 75 | 231 | 2.6 | 10.4 | 0.00 | 0.00 | 0.00 | 40 | 1016.3 |
| 20260510211006 | 75 | 355 | 3.5 | 10.4 | 0.00 | 0.00 | 0.00 | 39 | 1016.3 |
| 20260510210502 | 75 | 258 | 5.2 | 12.2 | 0.00 | 0.00 | 0.00 | 40 | 1016.4 |
| 20260510210002 | 75 | 270 | 6.1 | 8.7 | 0.00 | 0.00 | 0.00 | 40 | 1016.3 |
| 20260510205502 | 75 | 201 | 4.3 | 8.7 | 0.00 | 0.00 | 0.00 | 39 | 1016.4 |
| 20260510205001 | 75 | 302 | 3.5 | 7.8 | 0.00 | 0.00 | 0.00 | 40 | 1016.4 |
| 20260510204600 | 75 | 319 | 1.7 | 5.2 | 0.00 | 0.00 | 0.00 | 40 | 1016.5 |
| 20260510204103 | 74 | 316 | 3.5 | 7.8 | 0.00 | 0.00 | 0.00 | 41 | 1016.5 |
| 20260510203559 | 73 | 319 | 3.5 | 9.6 | 0.00 | 0.00 | 0.00 | 43 | 1016.5 |
| 20260510203058 | 73 | 287 | 5.2 | 11.3 | 0.00 | 0.00 | 0.00 | 42 | 1016.5 |
| 20260510202559 | 74 | 238 | 6.1 | 11.3 | 0.00 | 0.00 | 0.00 | 39 | 1016.7 |
| 20260510202058 | 74 | 261 | 5.2 | 9.6 | 0.00 | 0.00 | 0.00 | 39 | 1016.7 |
| 20260510201609 | 74 | 236 | 4.3 | 8.7 | 0.00 | 0.00 | 0.00 | 40 | 1016.7 |
| 20260510201058 | 74 | 272 | 4.3 | 9.6 | 0.00 | 0.00 | 0.00 | 39 | 1016.8 |
| 20260510200558 | 74 | 293 | 6.1 | 9.6 | 0.00 | 0.00 | 0.00 | 38 | 1016.8 |
| 20260510200058 | 75 | 240 | 7.0 | 8.7 | 0.00 | 0.00 | 0.00 | 38 | 1016.8 |
| 20260510195558 | 75 | 219 | 5.2 | 10.4 | 0.00 | 0.00 | 0.00 | 37 | 1016.9 |
| 20260510195057 | 75 | 249 | 5.2 | 9.6 | 0.00 | 0.00 | 0.00 | 38 | 1016.8 |
| 20260510194557 | 75 | 198 | 2.6 | 7.8 | 0.00 | 0.00 | 0.00 | 38 | 1016.8 |
| 20260510194056 | 74 | 229 | 1.7 | 10.4 | 0.00 | 0.00 | 0.00 | 39 | 1016.9 |
| 20260510193558 | 74 | 207 | 4.3 | 11.3 | 0.00 | 0.00 | 0.00 | 38 | 1016.9 |
| 20260510193105 | 75 | 242 | 5.2 | 13.0 | 0.00 | 0.00 | 0.00 | 40 | 1017.0 |
| 20260510192555 | 74 | 236 | 7.0 | 13.0 | 0.00 | 0.00 | 0.00 | 37 | 1017.0 |
| 20260510192055 | 74 | 235 | 1.7 | 10.4 | 0.00 | 0.00 | 0.00 | 39 | 1017.0 |
| 20260510191602 | 74 | 292 | 4.3 | 12.2 | 0.00 | 0.00 | 0.00 | 36 | 1017.2 |
| 20260510191055 | 74 | 258 | 6.1 | 12.2 | 0.00 | 0.00 | 0.00 | 40 | 1017.2 |
| 20260510190655 | 74 | 270 | 4.3 | 11.3 | 0.00 | 0.00 | 0.00 | 35 | 1017.3 |
| 20260510190054 | 73 | 252 | 4.3 | 13.9 | 0.00 | 0.00 | 0.00 | 35 | 1017.3 |
| 20260510185552 | 73 | 332 | 5.2 | 13.9 | 0.00 | 0.00 | 0.00 | 37 | 1017.2 |
| 20260510185052 | 74 | 284 | 7.8 | 12.2 | 0.00 | 0.00 | 0.00 | 35 | 1017.1 |
| 20260510184551 | 74 | 340 | 4.3 | 13.0 | 0.00 | 0.00 | 0.00 | 38 | 1017.1 |
| 20260510184054 | 74 | 254 | 6.1 | 13.0 | 0.00 | 0.00 | 0.00 | 41 | 1017.2 |
| 20260510183550 | 74 | 270 | 6.1 | 10.4 | 0.00 | 0.00 | 0.00 | 38 | 1017.2 |
| 20260510183050 | 74 | 263 | 3.5 | 13.0 | 0.00 | 0.00 | 0.00 | 38 | 1017.3 |
| 20260510182548 | 74 | 331 | 6.1 | 13.0 | 0.00 | 0.00 | 0.00 | 37 | 1017.2 |
| 20260510182048 | 73 | 194 | 3.5 | 12.2 | 0.00 | 0.00 | 0.00 | 36 | 1017.3 |
| 20260510181551 | 74 | 236 | 6.1 | 12.2 | 0.00 | 0.00 | 0.00 | 36 | 1017.2 |
| 20260510181048 | 73 | 330 | 1.7 | 13.0 | 0.00 | 0.00 | 0.00 | 43 | 1017.3 |
| 20260510180547 | 74 | 319 | 7.0 | 13.0 | 0.00 | 0.00 | 0.00 | 37 | 1017.3 |
| 20260510180048 | 73 | 234 | 2.6 | 12.2 | 0.00 | 0.00 | 0.00 | 40 | 1017.3 |
| 20260510175545 | 73 | 301 | 5.2 | 12.2 | 0.00 | 0.00 | 0.00 | 39 | 1017.3 |
| 20260510175045 | 73 | 268 | 4.3 | 11.3 | 0.00 | 0.00 | 0.00 | 37 | 1017.4 |
| 20260510174543 | 73 | 277 | 6.1 | 11.3 | 0.00 | 0.00 | 0.00 | 41 | 1017.4 |
| 20260510174042 | 73 | 279 | 6.1 | 9.6 | 0.00 | 0.00 | 0.00 | 40 | 1017.4 |
| 20260510173542 | 73 | 261 | 4.3 | 9.6 | 0.00 | 0.00 | 0.00 | 38 | 1017.3 |
| 20260510173041 | 73 | 294 | 4.3 | 12.2 | 0.00 | 0.00 | 0.00 | 42 | 1017.3 |
| 20260510172540 | 73 | 278 | 8.7 | 12.2 | 0.00 | 0.00 | 0.00 | 39 | 1017.3 |
| 20260510172039 | 73 | 244 | 2.6 | 14.8 | 0.00 | 0.00 | 0.00 | 41 | 1017.4 |
| 20260510171539 | 72 | 338 | 3.5 | 14.8 | 0.00 | 0.00 | 0.00 | 43 | 1017.4 |
| 20260510171039 | 72 | 360 | 7.0 | 12.2 | 0.00 | 0.00 | 0.00 | 41 | 1017.4 |
| 20260510170538 | 73 | 186 | 2.6 | 9.6 | 0.00 | 0.00 | 0.00 | 42 | 1017.3 |
| 20260510170042 | 72 | 242 | 3.5 | 9.6 | 0.00 | 0.00 | 0.00 | 44 | 1017.4 |
| 20260510165534 | 72 | 74 | 0.9 | 6.1 | 0.00 | 0.00 | 0.00 | 45 | 1017.4 |
| 20260510165037 | 71 | 327 | 1.7 | 7.0 | 0.00 | 0.00 | 0.00 | 46 | 1017.3 |
| 20260510164543 | 71 | 279 | 0.9 | 8.7 | 0.00 | 0.00 | 0.00 | 44 | 1017.5 |
| 20260510164031 | 71 | 349 | 1.7 | 9.6 | 0.00 | 0.00 | 0.00 | 47 | 1017.6 |
| 20260510163531 | 71 | 233 | 6.1 | 9.6 | 0.00 | 0.00 | 0.00 | 45 | 1017.6 |
| 20260510163030 | 70 | 271 | 5.2 | 12.2 | 0.00 | 0.00 | 0.00 | 47 | 1017.6 |
| 20260510162528 | 70 | 280 | 3.5 | 12.2 | 0.00 | 0.00 | 0.00 | 46 | 1017.7 |
| 20260510162028 | 69 | 287 | 6.1 | 9.6 | 0.00 | 0.00 | 0.00 | 48 | 1017.7 |
| 20260510161527 | 69 | 259 | 3.5 | 9.6 | 0.00 | 0.00 | 0.00 | 47 | 1017.8 |
| 20260510161026 | 69 | 242 | 4.3 | 9.6 | 0.00 | 0.00 | 0.00 | 50 | 1017.9 |
| 20260510160525 | 69 | 227 | 1.7 | 7.8 | 0.00 | 0.00 | 0.00 | 51 | 1018.0 |
| 20260510160129 | 69 | 326 | 4.3 | 10.4 | 0.00 | 0.00 | 0.00 | 50 | 1017.9 |
| 20260510155523 | 69 | 238 | 5.2 | 10.4 | 0.00 | 0.00 | 0.00 | 51 | 1017.9 |
| 20260510155023 | 69 | 265 | 6.1 | 9.6 | 0.00 | 0.00 | 0.00 | 50 | 1017.8 |
| 20260510154541 | 69 | 248 | 3.5 | 9.6 | 0.00 | 0.00 | 0.00 | 53 | 1017.8 |
| 20260510154026 | 69 | 311 | 2.6 | 8.7 | 0.00 | 0.00 | 0.00 | 51 | 1017.9 |
| 20260510153521 | 69 | 9 | 5.2 | 8.7 | 0.00 | 0.00 | 0.00 | 52 | 1017.9 |
| 20260510153024 | 69 | 41 | 2.6 | 7.8 | 0.00 | 0.00 | 0.00 | 55 | 1018.0 |
| 20260510152519 | 68 | 328 | 2.6 | 9.6 | 0.00 | 0.00 | 0.00 | 55 | 1018.0 |
| 20260510152018 | 67 | 248 | 3.5 | 9.6 | 0.00 | 0.00 | 0.00 | 55 | 1018.0 |
| 20260510151517 | 68 | 223 | 2.6 | 8.7 | 0.00 | 0.00 | 0.00 | 53 | 1018.2 |
| 20260510151017 | 67 | 285 | 4.3 | 8.7 | 0.00 | 0.00 | 0.00 | 53 | 1018.2 |
| 20260510150518 | 67 | 311 | 5.2 | 8.7 | 0.00 | 0.00 | 0.00 | 55 | 1018.4 |
| 20260510150016 | 67 | 11 | 2.6 | 11.3 | 0.00 | 0.00 | 0.00 | 57 | 1018.3 |
| 20260510145515 | 67 | 282 | 5.2 | 11.3 | 0.00 | 0.00 | 0.00 | 57 | 1018.3 |
| 20260510145012 | 67 | 339 | 7.8 | 11.3 | 0.00 | 0.00 | 0.00 | 56 | 1018.3 |
| 20260510144520 | 67 | 285 | 5.2 | 14.8 | 0.00 | 0.00 | 0.00 | 55 | 1018.3 |
| 20260510144015 | 67 | 316 | 7.8 | 14.8 | 0.00 | 0.00 | 0.00 | 56 | 1018.2 |
| 20260510143511 | 67 | 278 | 3.5 | 11.3 | 0.00 | 0.00 | 0.00 | 56 | 1018.1 |
| 20260510143010 | 66 | 309 | 1.7 | 11.3 | 0.00 | 0.00 | 0.00 | 58 | 1018.1 |
| 20260510142510 | 66 | 34 | 4.3 | 7.8 | 0.00 | 0.00 | 0.00 | 56 | 1018.2 |
| 20260510142009 | 66 | 260 | 0.9 | 9.6 | 0.00 | 0.00 | 0.00 | 58 | 1018.1 |
| 20260510141508 | 66 | 282 | 4.3 | 9.6 | 0.00 | 0.00 | 0.00 | 57 | 1018.2 |
| 20260510141007 | 65 | 335 | 4.3 | 7.8 | 0.00 | 0.00 | 0.00 | 58 | 1018.2 |
| 20260510140506 | 65 | 320 | 4.3 | 7.8 | 0.00 | 0.00 | 0.00 | 61 | 1018.2 |
| 20260510140005 | 64 | 308 | 5.2 | 7.8 | 0.00 | 0.00 | 0.00 | 60 | 1018.2 |
| 20260510135503 | 64 | 264 | 4.3 | 8.7 | 0.00 | 0.00 | 0.00 | 63 | 1018.2 |
| 20260510135004 | 64 | 284 | 2.6 | 7.8 | 0.00 | 0.00 | 0.00 | 62 | 1018.3 |
| 20260510134502 | 63 | 306 | 3.5 | 7.0 | 0.00 | 0.00 | 0.00 | 64 | 1018.3 |
| 20260510134059 | 63 | 303 | 3.5 | 7.0 | 0.00 | 0.00 | 0.00 | 65 | 1018.4 |
| 20260510133558 | 62 | 284 | 4.3 | 7.0 | 0.00 | 0.00 | 0.00 | 66 | 1018.4 |
| 20260510133057 | 61 | 267 | 4.3 | 7.8 | 0.00 | 0.00 | 0.00 | 68 | 1018.4 |
| 20260510132555 | 61 | 277 | 3.5 | 8.7 | 0.00 | 0.00 | 0.00 | 68 | 1018.4 |
| 20260510132054 | 60 | 261 | 4.3 | 8.7 | 0.00 | 0.00 | 0.00 | 68 | 1018.4 |
| 20260510131554 | 60 | 294 | 5.2 | 8.7 | 0.00 | 0.00 | 0.00 | 69 | 1018.4 |
| 20260510131052 | 60 | 271 | 3.5 | 8.7 | 0.00 | 0.00 | 0.00 | 70 | 1018.2 |
| 20260510130551 | 60 | 279 | 4.3 | 7.8 | 0.00 | 0.00 | 0.00 | 71 | 1018.2 |
| 20260510130051 | 59 | 317 | 3.5 | 8.7 | 0.00 | 0.00 | 0.00 | 73 | 1018.2 |
| 20260510125547 | 59 | 286 | 3.5 | 8.7 | 0.00 | 0.00 | 0.00 | 75 | 1018.3 |
| 20260510125047 | 59 | 279 | 4.3 | 7.8 | 0.00 | 0.00 | 0.00 | 74 | 1018.2 |
| 20260510124545 | 58 | 287 | 4.3 | 8.7 | 0.00 | 0.00 | 0.00 | 74 | 1018.1 |
| 20260510124044 | 58 | 282 | 4.3 | 8.7 | 0.00 | 0.00 | 0.00 | 76 | 1018.0 |
| 20260510123543 | 57 | 293 | 3.5 | 8.7 | 0.00 | 0.00 | 0.00 | 78 | 1017.9 |
| 20260510123046 | 56 | 254 | 3.5 | 10.4 | 0.00 | 0.00 | 0.00 | 79 | 1017.8 |
| 20260510122540 | 56 | 259 | 7.0 | 10.4 | 0.00 | 0.00 | 0.00 | 79 | 1017.7 |
| 20260510122038 | 55 | 261 | 5.2 | 9.6 | 0.00 | 0.00 | 0.00 | 81 | 1017.6 |
| 20260510121539 | 54 | 281 | 6.1 | 9.6 | 0.00 | 0.00 | 0.00 | 82 | 1017.7 |
| 20260510121036 | 54 | 257 | 5.2 | 8.7 | 0.00 | 0.00 | 0.00 | 82 | 1017.6 |
| 20260510120534 | 54 | 295 | 3.5 | 8.7 | 0.00 | 0.00 | 0.00 | 84 | 1017.6 |
| 20260510120035 | 53 | 252 | 3.5 | 10.4 | 0.00 | 0.00 | 0.00 | 84 | 1017.7 |
| 20260510115532 | 53 | 244 | 6.1 | 10.4 | 0.00 | 0.00 | 0.00 | 84 | 1017.7 |
| 20260510115032 | 53 | 253 | 3.5 | 9.6 | 0.00 | 0.00 | 0.00 | 85 | 1017.5 |
| 20260510114536 | 53 | 239 | 4.3 | 9.6 | 0.00 | 0.00 | 0.00 | 85 | 1017.3 |
| 20260510114034 | 52 | 282 | 5.2 | 9.6 | 0.00 | 0.00 | 0.00 | 85 | 1017.4 |
| 20260510113533 | 52 | 266 | 7.0 | 10.4 | 0.00 | 0.00 | 0.00 | 85 | 1017.2 |
| 20260510113029 | 52 | 250 | 5.2 | 10.4 | 0.00 | 0.00 | 0.00 | 86 | 1017.1 |
| 20260510112530 | 52 | 263 | 4.3 | 7.8 | 0.00 | 0.00 | 0.00 | 86 | 1017.0 |
| 20260510112028 | 51 | 269 | 5.2 | 7.8 | 0.00 | 0.00 | 0.00 | 87 | 1016.9 |
| 20260510111528 | 51 | 265 | 1.7 | 7.0 | 0.00 | 0.00 | 0.00 | 88 | 1016.8 |
| 20260510111026 | 51 | 261 | 3.5 | 7.0 | 0.00 | 0.00 | 0.00 | 88 | 1016.7 |
| 20260510110526 | 50 | 272 | 2.6 | 7.0 | 0.00 | 0.00 | 0.00 | 89 | 1016.8 |
| 20260510110026 | 50 | 243 | 2.6 | 7.0 | 0.00 | 0.00 | 0.00 | 90 | 1016.6 |
| 20260510105525 | 49 | 252 | 3.5 | 7.0 | 0.00 | 0.00 | 0.00 | 91 | 1016.5 |
| 20260510105024 | 49 | 271 | 4.3 | 7.0 | 0.00 | 0.00 | 0.00 | 91 | 1016.5 |
| 20260510104524 | 48 | 259 | 2.6 | 6.1 | 0.00 | 0.00 | 0.00 | 90 | 1016.5 |
| 20260510104023 | 48 | 262 | 2.6 | 6.1 | 0.00 | 0.00 | 0.00 | 91 | 1016.5 |
| 20260510103523 | 48 | 263 | 3.5 | 6.1 | 0.00 | 0.00 | 0.00 | 90 | 1016.4 |
| 20260510103021 | 48 | 263 | 1.7 | 5.2 | 0.00 | 0.00 | 0.00 | 89 | 1016.2 |
| 20260510102523 | 49 | 262 | 1.7 | 5.2 | 0.00 | 0.00 | 0.00 | 89 | 1016.3 |
| 20260510102022 | 49 | 261 | 1.7 | 5.2 | 0.00 | 0.00 | 0.00 | 87 | 1016.2 |
| 20260510101519 | 50 | 261 | 1.7 | 6.1 | 0.00 | 0.00 | 0.00 | 88 | 1016.1 |
| 20260510101018 | 50 | 263 | 3.5 | 6.1 | 0.00 | 0.00 | 0.00 | 88 | 1016.0 |
| 20260510100518 | 51 | 262 | 1.7 | 7.0 | 0.00 | 0.00 | 0.00 | 87 | 1015.8 |
| 20260510100017 | 51 | 263 | 2.6 | 7.0 | 0.00 | 0.00 | 0.00 | 87 | 1015.8 |
| 20260510095517 | 51 | 271 | 1.7 | 5.2 | 0.00 | 0.00 | 0.00 | 87 | 1015.8 |
| 20260510095016 | 51 | 271 | 2.6 | 7.0 | 0.00 | 0.00 | 0.00 | 87 | 1015.7 |
| 20260510094517 | 51 | 266 | 3.5 | 7.0 | 0.00 | 0.00 | 0.00 | 87 | 1015.7 |
| 20260510094015 | 51 | 260 | 1.7 | 3.5 | 0.00 | 0.00 | 0.00 | 87 | 1015.8 |
| 20260510093515 | 51 | 260 | 1.7 | 3.5 | 0.00 | 0.00 | 0.00 | 86 | 1015.7 |
| 20260510093020 | 52 | 260 | 1.7 | 5.2 | 0.00 | 0.00 | 0.00 | 86 | 1015.8 |
| 20260510092514 | 52 | 268 | 1.7 | 5.2 | 0.00 | 0.00 | 0.00 | 86 | 1015.7 |
| 20260510092012 | 52 | 263 | 0.9 | 5.2 | 0.00 | 0.00 | 0.00 | 85 | 1015.6 |
| 20260510091516 | 52 | 262 | 1.7 | 5.2 | 0.00 | 0.00 | 0.00 | 86 | 1015.5 |
| 20260510091017 | 52 | 262 | 3.5 | 7.0 | 0.00 | 0.00 | 0.00 | 86 | 1015.4 |
| 20260510090512 | 52 | 261 | 3.5 | 7.0 | 0.00 | 0.00 | 0.00 | 86 | 1015.4 |
| 20260510090011 | 52 | 267 | 2.6 | 7.0 | 0.00 | 0.00 | 0.00 | 85 | 1015.4 |
| 20260510085509 | 52 | 271 | 4.3 | 7.0 | 0.00 | 0.00 | 0.00 | 85 | 1015.3 |
| 20260510085010 | 52 | 270 | 4.3 | 7.0 | 0.00 | 0.00 | 0.00 | 85 | 1015.2 |
| 20260510084509 | 52 | 277 | 3.5 | 7.0 | 0.00 | 0.00 | 0.00 | 85 | 1015.1 |
| 20260510084010 | 52 | 271 | 4.3 | 7.8 | 0.00 | 0.00 | 0.00 | 86 | 1015.1 |
| 20260510083513 | 51 | 281 | 5.2 | 7.8 | 0.00 | 0.00 | 0.00 | 87 | 1015.1 |
| 20260510083108 | 51 | 273 | 4.3 | 7.0 | 0.00 | 0.00 | 0.00 | 88 | 1015.1 |
| 20260510082508 | 50 | 268 | 5.2 | 7.8 | 0.00 | 0.00 | 0.00 | 91 | 1015.1 |
| 20260510082008 | 48 | 263 | 4.3 | 6.1 | 0.00 | 0.00 | 0.00 | 91 | 1015.1 |
| 20260510081507 | 48 | 261 | 1.7 | 5.2 | 0.00 | 0.00 | 0.00 | 88 | 1015.0 |
| 20260510081007 | 48 | 261 | 0.0 | 1.7 | 0.00 | 0.00 | 0.00 | 87 | 1015.0 |
| 20260510080507 | 49 | 261 | 0.9 | 2.6 | 0.00 | 0.00 | 0.00 | 86 | 1014.9 |
| 20260510080009 | 50 | 261 | 1.7 | 2.6 | 0.00 | 0.00 | 0.00 | 85 | 1015.0 |
| 20260510075505 | 51 | 261 | 0.9 | 5.2 | 0.00 | 0.00 | 0.00 | 84 | 1014.9 |
| 20260510075005 | 52 | 261 | 1.7 | 5.2 | 0.00 | 0.00 | 0.00 | 85 | 1014.8 |
| 20260510074506 | 52 | 261 | 2.6 | 5.2 | 0.00 | 0.00 | 0.00 | 84 | 1014.8 |
| 20260510074006 | 52 | 261 | 1.7 | 5.2 | 0.00 | 0.00 | 0.00 | 82 | 1014.8 |
| 20260510073504 | 53 | 261 | 1.7 | 6.1 | 0.00 | 0.00 | 0.00 | 82 | 1014.7 |
| 20260510073008 | 53 | 261 | 2.6 | 7.8 | 0.00 | 0.00 | 0.00 | 82 | 1014.8 |
| 20260510072504 | 53 | 265 | 5.2 | 7.8 | 0.00 | 0.00 | 0.00 | 84 | 1014.7 |
| 20260510072006 | 52 | 265 | 3.5 | 7.0 | 0.00 | 0.00 | 0.00 | 85 | 1014.7 |
| 20260510071506 | 51 | 267 | 3.5 | 7.0 | 0.00 | 0.00 | 0.00 | 87 | 1014.7 |
| 20260510071002 | 50 | 263 | 4.3 | 7.0 | 0.00 | 0.00 | 0.00 | 87 | 1014.8 |
| 20260510070503 | 50 | 258 | 3.5 | 6.1 | 0.00 | 0.00 | 0.00 | 85 | 1014.7 |
| 20260510070004 | 51 | 261 | 3.5 | 5.2 | 0.00 | 0.00 | 0.00 | 83 | 1014.8 |
| 20260510065501 | 53 | 263 | 2.6 | 6.1 | 0.00 | 0.00 | 0.00 | 81 | 1014.8 |
| 20260510065101 | 53 | 263 | 3.5 | 6.1 | 0.00 | 0.00 | 0.00 | 83 | 1014.9 |
| 20260510064637 | 52 | 263 | 3.5 | 6.1 | 0.00 | 0.00 | 0.00 | 85 | 1014.9 |
| 20260510064057 | 51 | 264 | 3.5 | 6.1 | 0.00 | 0.00 | 0.00 | 88 | 1014.8 |
| 20260510063558 | 49 | 257 | 2.6 | 5.2 | 0.00 | 0.00 | 0.00 | 89 | 1014.9 |
| 20260510063057 | 49 | 246 | 1.7 | 4.3 | 0.00 | 0.00 | 0.00 | 89 | 1015.0 |
| 20260510062556 | 49 | 246 | 2.6 | 4.3 | 0.00 | 0.00 | 0.00 | 89 | 1015.0 |
| 20260510062056 | 49 | 246 | 2.6 | 4.3 | 0.00 | 0.00 | 0.00 | 88 | 1015.0 |
| 20260510061556 | 49 | 247 | 3.5 | 7.0 | 0.00 | 0.00 | 0.00 | 88 | 1015.1 |
| 20260510061118 | 49 | 247 | 2.6 | 4.3 | 0.00 | 0.00 | 0.00 | 89 | 1015.0 |
| 20260510055550 | 48 | 241 | 2.6 | 3.5 | 0.00 | 0.00 | 0.00 | 90 | 1015.0 |
| 20260510055050 | 48 | 241 | 1.7 | 3.5 | 0.00 | 0.00 | 0.00 | 89 | 1015.0 |
| 20260510054550 | 48 | 241 | 1.7 | 4.3 | 0.00 | 0.00 | 0.00 | 90 | 1015.1 |
| 20260510054050 | 48 | 241 | 2.6 | 6.1 | 0.00 | 0.00 | 0.00 | 90 | 1015.1 |
| 20260510053549 | 48 | 241 | 3.5 | 6.1 | 0.00 | 0.00 | 0.00 | 90 | 1015.0 |
| 20260510053049 | 48 | 250 | 2.6 | 4.3 | 0.00 | 0.00 | 0.00 | 90 | 1015.0 |
| 20260510052547 | 48 | 255 | 2.6 | 3.5 | 0.00 | 0.00 | 0.00 | 90 | 1015.1 |
| 20260510052047 | 48 | 255 | 1.7 | 2.6 | 0.00 | 0.00 | 0.00 | 90 | 1015.1 |
| 20260510051551 | 48 | 255 | 0.9 | 2.6 | 0.00 | 0.00 | 0.00 | 89 | 1015.0 |
| 20260510051044 | 48 | 255 | 0.0 | 0.9 | 0.00 | 0.00 | 0.00 | 89 | 1015.1 |
| 20260510050545 | 48 | 255 | 0.0 | 0.9 | 0.00 | 0.00 | 0.00 | 89 | 1015.2 |
| 20260510050044 | 48 | 255 | 0.0 | 1.7 | 0.00 | 0.00 | 0.00 | 88 | 1015.1 |
| 20260510045544 | 49 | 255 | 0.0 | 0.9 | 0.00 | 0.00 | 0.00 | 87 | 1015.2 |
| 20260510045040 | 49 | 255 | 0.0 | 0.0 | 0.00 | 0.00 | 0.00 | 86 | 1015.1 |
| 20260510044539 | 50 | 255 | 0.0 | 2.6 | 0.00 | 0.00 | 0.00 | 86 | 1015.0 |
| 20260510044039 | 50 | 255 | 0.0 | 3.5 | 0.00 | 0.00 | 0.00 | 86 | 1015.0 |
| 20260510043538 | 50 | 255 | 1.7 | 3.5 | 0.00 | 0.00 | 0.00 | 86 | 1015.0 |
| 20260510043039 | 50 | 255 | 1.7 | 3.5 | 0.00 | 0.00 | 0.00 | 85 | 1014.9 |
| 20260510042539 | 50 | 255 | 1.7 | 2.6 | 0.00 | 0.00 | 0.00 | 85 | 1015.0 |
| 20260510042036 | 51 | 255 | 0.9 | 2.6 | 0.00 | 0.00 | 0.00 | 85 | 1014.9 |
| 20260510041535 | 51 | 255 | 0.9 | 2.6 | 0.00 | 0.00 | 0.00 | 85 | 1014.8 |
| 20260510041035 | 51 | 255 | 0.0 | 2.6 | 0.00 | 0.00 | 0.00 | 85 | 1014.9 |
| 20260510040534 | 51 | 255 | 0.0 | 3.5 | 0.00 | 0.00 | 0.00 | 84 | 1014.8 |
| 20260510040041 | 51 | 255 | 0.9 | 3.5 | 0.00 | 0.00 | 0.00 | 84 | 1014.8 |
| 20260510035531 | 51 | 255 | 0.0 | 1.7 | 0.00 | 0.00 | 0.00 | 84 | 1014.9 |
| 20260510035031 | 51 | 255 | 0.0 | 3.5 | 0.00 | 0.00 | 0.00 | 84 | 1014.9 |
| 20260510034531 | 51 | 255 | 0.9 | 4.3 | 0.00 | 0.00 | 0.00 | 84 | 1015.0 |
| 20260510034031 | 51 | 255 | 2.6 | 4.3 | 0.00 | 0.00 | 0.00 | 84 | 1014.9 |
| 20260510033534 | 51 | 255 | 1.7 | 2.6 | 0.00 | 0.00 | 0.00 | 84 | 1015.0 |
| 20260510033030 | 51 | 255 | 1.7 | 2.6 | 0.00 | 0.00 | 0.00 | 83 | 1014.9 |
| 20260510032530 | 52 | 255 | 0.9 | 2.6 | 0.00 | 0.00 | 0.00 | 83 | 1014.9 |
| 20260510032031 | 52 | 255 | 0.9 | 3.5 | 0.00 | 0.00 | 0.00 | 82 | 1014.8 |
| 20260510031532 | 52 | 255 | 1.7 | 3.5 | 0.00 | 0.00 | 0.00 | 82 | 1014.7 |
| 20260510031030 | 52 | 255 | 1.7 | 3.5 | 0.00 | 0.00 | 0.00 | 81 | 1014.8 |
| 20260510030530 | 53 | 255 | 1.7 | 4.3 | 0.00 | 0.00 | 0.00 | 80 | 1014.7 |
| 20260510030030 | 53 | 255 | 2.6 | 4.3 | 0.00 | 0.00 | 0.00 | 80 | 1014.6 |
| 20260510025529 | 54 | 255 | 2.6 | 4.3 | 0.00 | 0.00 | 0.00 | 78 | 1014.5 |
| 20260510025029 | 54 | 255 | 2.6 | 5.2 | 0.00 | 0.00 | 0.00 | 77 | 1014.5 |
| 20260510024531 | 55 | 279 | 1.7 | 3.5 | 0.00 | 0.00 | 0.00 | 75 | 1014.3 |
| 20260510024032 | 57 | 286 | 0.0 | 2.6 | 0.00 | 0.00 | 0.00 | 73 | 1014.3 |
| 20260510023529 | 58 | 286 | 0.9 | 3.5 | 0.00 | 0.00 | 0.00 | 70 | 1014.3 |
| 20260510023029 | 58 | 286 | 1.7 | 4.3 | 0.00 | 0.00 | 0.00 | 69 | 1014.3 |
| 20260510022529 | 58 | 286 | 1.7 | 4.3 | 0.00 | 0.00 | 0.00 | 69 | 1014.2 |
| 20260510022028 | 58 | 288 | 2.6 | 6.1 | 0.00 | 0.00 | 0.00 | 70 | 1014.2 |
| 20260510021532 | 57 | 286 | 3.5 | 6.1 | 0.00 | 0.00 | 0.00 | 72 | 1014.1 |
| 20260510021028 | 56 | 288 | 3.5 | 6.1 | 0.00 | 0.00 | 0.00 | 75 | 1014.1 |
| 20260510020528 | 54 | 292 | 3.5 | 4.3 | 0.00 | 0.00 | 0.00 | 77 | 1014.1 |
| 20260510020030 | 54 | 304 | 1.7 | 3.5 | 0.00 | 0.00 | 0.00 | 77 | 1014.1 |
| 20260510015528 | 54 | 304 | 1.7 | 2.6 | 0.00 | 0.00 | 0.00 | 77 | 1014.1 |
| 20260510015026 | 55 | 304 | 1.7 | 3.5 | 0.00 | 0.00 | 0.00 | 77 | 1014.0 |
| 20260510014528 | 55 | 304 | 1.7 | 3.5 | 0.00 | 0.00 | 0.00 | 76 | 1013.9 |
| 20260510014027 | 55 | 304 | 1.7 | 3.5 | 0.00 | 0.00 | 0.00 | 75 | 1013.9 |
| 20260510013528 | 55 | 304 | 1.7 | 3.5 | 0.00 | 0.00 | 0.00 | 75 | 1013.8 |
| 20260510013027 | 55 | 304 | 0.9 | 2.6 | 0.00 | 0.00 | 0.00 | 75 | 1013.6 |
| 20260510012524 | 56 | 304 | 0.9 | 3.5 | 0.00 | 0.00 | 0.00 | 74 | 1013.5 |
| 20260510012028 | 56 | 304 | 1.7 | 3.5 | 0.00 | 0.00 | 0.00 | 74 | 1013.4 |
| 20260510011525 | 56 | 304 | 0.9 | 2.6 | 0.00 | 0.00 | 0.00 | 73 | 1013.3 |
| 20260510011027 | 56 | 304 | 0.9 | 2.6 | 0.00 | 0.00 | 0.00 | 73 | 1013.2 |
| 20260510010524 | 56 | 304 | 1.7 | 2.6 | 0.00 | 0.00 | 0.00 | 73 | 1013.1 |
| 20260510010024 | 56 | 304 | 0.9 | 2.6 | 0.00 | 0.00 | 0.00 | 73 | 1013.2 |
| 20260510005524 | 57 | 304 | 1.7 | 2.6 | 0.00 | 0.00 | 0.00 | 72 | 1013.0 |
| 20260510005024 | 57 | 304 | 0.9 | 3.5 | 0.00 | 0.00 | 0.00 | 72 | 1012.9 |
| 20260510004523 | 58 | 304 | 0.9 | 3.5 | 0.00 | 0.00 | 0.00 | 70 | 1012.9 |
| 20260510004023 | 58 | 304 | 0.9 | 3.5 | 0.00 | 0.00 | 0.00 | 69 | 1012.7 |
| 20260510003524 | 59 | 303 | 0.9 | 2.6 | 0.00 | 0.00 | 0.00 | 68 | 1012.7 |
| 20260510003023 | 60 | 303 | 1.7 | 3.5 | 0.00 | 0.00 | 0.00 | 67 | 1012.8 |
| 20260510002523 | 61 | 303 | 0.9 | 3.5 | 0.00 | 0.00 | 0.00 | 64 | 1012.6 |
| 20260510002022 | 62 | 304 | 0.9 | 3.5 | 0.00 | 0.00 | 0.00 | 62 | 1012.5 |
| 20260510001522 | 62 | 293 | 0.0 | 1.7 | 0.00 | 0.00 | 0.00 | 62 | 1012.5 |
| 20260510001023 | 63 | 317 | 0.0 | 4.3 | 0.00 | 0.00 | 0.00 | 60 | 1012.6 |
| 20260510000523 | 63 | 321 | 0.9 | 4.3 | 0.00 | 0.00 | 0.00 | 59 | 1012.6 |
| 20260510000022 | 64 | 329 | 0.9 | 4.3 | 0.00 | 0.00 | 0.00 | 59 | 1012.5 |
| 20260509235521 | 64 | 317 | 1.7 | 5.2 | 0.00 | 0.00 | 0.00 | 58 | 1012.5 |
| 20260509235022 | 64 | 315 | 1.7 | 7.8 | 0.00 | 0.00 | 0.00 | 57 | 1012.5 |
| 20260509234521 | 65 | 290 | 3.5 | 7.8 | 0.00 | 0.00 | 0.00 | 56 | 1012.4 |
| 20260509234021 | 65 | 307 | 3.5 | 7.0 | 0.00 | 0.00 | 0.00 | 56 | 1012.4 |
| 20260509233520 | 66 | 355 | 1.7 | 5.2 | 0.00 | 0.00 | 0.00 | 56 | 1012.5 |
| 20260509233021 | 66 | 335 | 2.6 | 5.2 | 0.00 | 0.00 | 0.00 | 55 | 1012.5 |
| 20260509232521 | 66 | 350 | 1.7 | 4.3 | 0.00 | 0.00 | 0.00 | 56 | 1012.6 |
| 20260509232020 | 66 | 294 | 0.9 | 6.1 | 0.00 | 0.00 | 0.00 | 56 | 1012.5 |
| 20260509231520 | 66 | 292 | 2.6 | 7.0 | 0.00 | 0.00 | 0.00 | 55 | 1012.5 |